www.pogodaiklimat.ru

ПОГОДА в Тетерборо, NJ

  • Прогноз погоды в Тетерборо
  • Монитор погоды в Тетерборо
  • Климат в Тетерборо

АРХИВ ПОГОДЫ в Тетерборо

Время (UTC), дата Ветер
(напр.,м/с)
 
Видим.   Явления Облачность Т
(С)
Тd
(С)
f
(%)
Тe
(С)
Тes
(С)
Комфортность

P
(гПа)

Po
(гПа)
Тmin
(С)
Tmax
(С)
R
(мм)
SD
(см)
20:51 22.03 З  9
{15} 
16 км    5/0 2100 м
[средняя] 
+8.9  -2.8  44  +5  +5    995.1  994.9         
21:51 22.03 З  7
{11} 
16 км    5/5 1500 м  +8.3  -1.7  49  +4  +4    996.0  995.6         
22:51 22.03 З  6
{12} 
16 км    ясно  +6.7  -1.1  57  +2  +2    997.4  997.3  +6.7  +10.0     
23:51 22.03 З  16 км    ясно  +6.1  -1.7  57  +1  +1    998.3  998.0         
00:51 23.03 З  4
{10} 
16 км    2/2 1290 м  +5.6  -1.7  59  +2  +2    999.0  998.6         
01:51 23.03 З  6
{11} 
16 км    ясно  +5.0  -0.6  67  -0  -0    999.3  999.0         
02:51 23.03 З  9
{15} 
16 км    10/8 1170 м
[средняя] 
+3.9  -2.2  64  -3  -3    1000.1  1000.0         
03:51 23.03 З  8
{13} 
16 км    10/10 990 м  +2.8  -2.2  70  -4  -4    1000.9  1000.7         
04:51 23.03 СЗ  10
{13} 
13 км  слабый снег  10/10 990 м  +2.2  -3.9  64  -5  -5    1001.6  1001.3  +2.2  +6.7     
05:51 23.03 СЗ  8
{15} 
16 км  слабый снег  10/10 1260 м  +1.7  -5.0  61  -5  -5    1002.2  1002.0         
06:51 23.03 З  8
{14} 
16 км    10/8 1200 м
[средняя] 
+1.1  -5.6  61  -6  -6    1002.9  1002.7         
07:51 23.03 СЗ  10
{15} 
16 км    8/5 1200 м
[средняя] 
+1.7  -6.7  54  -6  -6    1003.6  1003.4         
08:51 23.03 З  7
{17} 
16 км    10/2 1260 м
[средняя] 
+1.7  -6.7  54  -5  -5    1004.6  1004.4         
09:51 23.03 З  9
{14} 
16 км    8/8 1170 м  +1.7  -6.1  56  -5  -5    1005.9  1005.7         
10:51 23.03 СЗ  9
{13} 
16 км    8/8 1170 м  +1.7  -5.6  58  -5  -5    1006.7  1006.4  +1.1  +2.2     
11:51 23.03 СЗ  7
{13} 
16 км    ясно  +2.2  -5.6  56  -4  -4    1008.1  1007.8         
12:51 23.03 СЗ  8
{13} 
16 км    ясно  +2.2  -6.7  52  -4  -4    1009.3  1009.1         
13:51 23.03 СЗ  7
{11} 
16 км    ясно  +3.3  -6.1  50  -3  -1    1010.4  1010.1         
14:51 23.03 СЗ  8
{13} 
16 км    ясно  +5.6  -5.0  46  0  +1    1011.2  1010.8         
15:51 23.03 З  7
{13} 
16 км    ясно  +6.7  -5.0  43  +2  +5    1012.1  1011.8         
16:51 23.03 СЗ  8
{14} 
16 км    ясно  +7.8  -4.4  42  +3  +5    1012.6  1012.2  +1.7  +8.3     
17:51 23.03 СЗ  10
{17} 
16 км    ясно  +8.9  -5.0  37  +4  +5    1012.9  1012.5         
18:51 23.03 З  9
{13} 
16 км    ясно  +8.9  -6.7  33  +5  +5    1013.6  1013.2         
19:51 23.03 СЗ  11
{16} 
16 км    ясно  +8.9  -8.9  27  +4  +4    1014.2  1013.9         
20:51 23.03 СЗ  10
{13} 
16 км    ясно  +8.3  -9.4  27  +4  +4    1015.5  1015.2         
21:51 23.03 СЗ  10
{13} 
16 км    ясно  +7.2  -11.7  25  +2  +2    1016.3  1015.9         
22:51 23.03 СЗ  7
{9} 
16 км    ясно  +6.1  -11.7  27  +2  +2    1017.7  1017.3  +6.1  +9.4     
23:51 23.03 СЗ  6
{10} 
16 км    ясно  +6.1  -10.6  29  +2  +2    1018.9  1018.6         
00:51 24.03 СЗ  4
{8} 
16 км    ясно  +5.6  -11.1  29  +2  +2    1019.7  1019.6         
01:51 24.03 СЗ  16 км    ясно  +5.0  -11.1  30  +1  +1    1020.3  1020.0         
02:51 24.03 СЗ  16 км    ясно  +4.4  -11.1  31  +2  +2    1020.5  1020.3         
03:51 24.03 СЗ  16 км    ясно  +3.9  -10.6  34  +1  +1    1020.6  1020.3         
04:51 24.03 З  16 км    ясно  +3.3  -11.1  34  -0  -0    1021.1  1021.0  +3.3  +6.7     
05:51 24.03 З  16 км    ясно  +3.3  -10.6  35  -0  -0    1021.3  1021.0         
06:51 24.03   16 км    ясно  +2.2  -10.0  40  +2  +2    1021.8  1021.3         
07:51 24.03 СЗ  16 км    ясно  +2.2  -10.6  38  -2  -2    1021.8  1021.7         
08:51 24.03 З  16 км    ясно  +1.1  -10.0  43  -3  -3    1022.1  1021.7         
09:51 24.03 З  16 км    ясно  +1.1  -10.0  43  -2  -2    1022.7  1022.3         
10:51 24.03 З  6
{8} 
16 км    ясно  +3.3  -10.0  37  -2  -2    1022.9  1022.7  +0.6  +3.9     
11:51 24.03 З  16 км    ясно  +5.0  -10.6  31  +2  +2    1023.1  1022.7         
12:51 24.03 З  16 км    ясно  +6.7  -10.0  29  +4  +6    1022.6  1022.3         
13:51 24.03 СЗ  16 км    ясно  +8.9  -8.9  27  +6  +11    1022.2  1022.0         
14:51 24.03 З  16 км    ясно  +11.1  -8.9  24  +9  +15    1021.2  1021.0         
15:51 24.03 З  16 км    ясно  +12.8  -8.3  22  +11  +15    1020.2  1020.0         
16:51 24.03 З  5
{9} 
16 км    ясно  +14.4  -8.3  20  +13  +18    1019.1  1018.9  +3.3  +14.4     
17:51 24.03 ЮЗ  6
{10} 
16 км    ясно  +15.0  -7.2  21  +14  +17    1017.9  1017.6         
18:51 24.03 З  6
{10} 
16 км    ясно  +15.6  -6.7  21  +14  +17    1016.6  1016.2         
19:51 24.03 ЮЗ  16 км    ясно  +15.6  -7.8  19  +14  +14    1015.9  1015.6         

 

Местоположение метеостанции Teterboro Airport: широта 40.8589 долгота -74.0567 высота над уровнем моря 2 м.

В архиве по умолчанию представлена погода в Тетерборо за последние 1-2 суток. Обновление информации о фактической погоде в базе происходит ежечасно! Архивные данные за месяц целиком и за предыдущие месяцы Вы можете получить, выбрав интересующий диапазон дат из раскрывающегося списка и нажав кнопку "Ввод!".

Внимание! Архив погоды МЕТАР в базе сайта хранится не более 60 дней. Нет смысла пытаться выбрать более раннюю дату.

Внимание! Время в таблицах - всемирное. Для получения местного времени необходимо прибавить поправку, которая в Тетерборо равна -5 ч.

Ветер - указаны скорость ветра в м/с и направление, откуда дует ветер: С - северный, СВ - северо-восточный, В - восточный, ЮВ - юго-восточный, Ю - южный, ЮЗ - юго-западный, З - западный, СЗ - северо-западный.
Видимость - горизонтальная дальность видимости в метрах или километрах. При видимости от 1 до 10 км при отсутствии осадков обычно наблюдается дымка, при ухудшении видимости до 1 км и менее - туман. В сухую погоду видимость может ухудшаться дымом, пылью или мглою.
Атмосферные явления - указаны явления, наблюдавшиеся в указанный момент времени.
Облачность - указаны через наклонную черту верхняя и нижняя облачность в баллах и высота нижней границы облаков в метрах. Внимание: облачность, как и прочие метеорологические величины в США измеряются автоматическими метеостанциями. Указанные значения в баллах носят условный характер и показывают процент времени, в течение которого, в среднем, лазерный луч высотомера отражался от облаков обратно.
T - Температура воздуха - температура, измеренная на высоте 2 м над землей.
Td - Температура точки росы - температура, при понижении до которой содержащийся в воздухе водяной пар достигнет насыщения.
f - Относительная влажность воздуха - влажноcть воздуха, измеренная на высоте 2 м над землей.
Te - Эффективная температура - температура, которую ощущает одетый по сезону человек в тени. Характеристика душности погоды. При расчете учитывается влияние влажности воздуха и скорости ветра на теплоощущения человека.
Tes - Эффективная температура на солнце - температура, которую ощущает человек, с поправкой на солнечный нагрев. Характеристика знойности погоды. Зависит от высоты солнца над горизонтом, облачности и скорости ветра. Ночью, в пасмурную погоду, а также при ветре 12 м/с и более поправка равна нулю.
P - Атмосферное давление - приведенное к уровню моря атмосферное давление.
Po - Атмосферное давление - измеренное на уровне метеостанции атмосферное давление.
Tmin - Минимальная температура - минимум температуры воздуха на высоте 2 м над землей.
Tmax - Максимальная температура - максимум температуры воздуха на высоте 2 м над землей.
R - Количество осадков - Количество выпавших осадков за 3 или 6 часов, мм.
SD - Снежный покров - Высота снежного покрова, см.